Flag for Canada Weather past 2 weeks in Thompson, Manitoba, Canada

Now
68 °F

Overcast.


Feels Like: 68 °F
Forecast: 55 / 74 °F
Wind: 9 mph from West

Location: Thompson

Current Time: Jul 2, 2015 at 11:59:46 AM

Latest Report: Jul 2, 2015 at 11:00 AM


Visibility: 6 mi

Pressure: 29.75 "Hg

Humidity: 69%

Dew point: 57 °F

Location of ThompsonLocation

Historic Weather in Thompson — Graph

°F

Thompson temperature yesterday

Maximum temperature yesterday: 77 °F (at 3:00 PM)
Minimum temperature yesterday: 45 °F (at 5:00 AM)
Average temperature yesterday: 63 °F

Past Weeks' High & Low Weather Summary

 TemperatureHumidityPressure
High84 °F (Jun 26, 5:00 PM)100% (Jun 30, 6:00 AM)30.09 "Hg (Jun 30, 6:00 AM)
Low34 °F (Jun 20, 4:00 AM)25% (Jun 20, 6:00 PM)29.67 "Hg (Jun 20, 7:00 PM)
Average60 °F64%29.88 "Hg
* Reported Jun 17 10:00 AM — Jul 2 10:00 AM, Thompson, Weather by CustomWeather, © 2015

Note: Actual official high and low records may vary slightly from our data, if they occured in-between our weather recording intervals... More about our weather records

Advertising

Thompson weather history for previous 24 hours

 ConditionsComfort  
Time TempWeatherWind HumidityBarometerVisibility
10:00 AM
Thu, Jul 2
68 °FOvercast.10 mph64%29.76 "Hg10 mi
9:00 AM66 °FOvercast.5 mph64%29.76 "Hg10 mi
8:00 AM63 °FBroken clouds.7 mph73%29.78 "Hg8 mi
7:00 AM57 °FSprinkles. Cloudy.2 mph82%29.79 "Hg8 mi
6:00 AM57 °FBroken clouds.2 mph77%29.82 "Hg8 mi
5:00 AM52 °FPartly cloudy.No wind88%29.83 "Hg10 mi
4:00 AM55 °FPartly cloudy.No wind88%29.83 "Hg15 mi
3:00 AM55 °FMostly cloudy.No wind88%29.84 "Hg15 mi
2:00 AM55 °FMostly cloudy.No wind82%29.85 "Hg15 mi
1:00 AM55 °FPartly cloudy.No wind77%29.87 "Hg15 mi
12:00 AM57 °FPartly cloudy.No wind77%29.87 "Hg15 mi
11:00 PM
Wed, Jul 1
61 °FPartly sunny.No wind72%29.88 "Hg15 mi
10:00 PM64 °FBroken clouds.No wind60%29.88 "Hg15 mi
9:00 PM70 °FBroken clouds.2 mph60%29.88 "Hg15 mi
8:00 PM75 °FBroken clouds.2 mph34%29.88 "Hg15 mi
7:00 PM77 °FBroken clouds.5 mph32%29.88 "Hg15 mi
6:00 PM77 °FBroken clouds.2 mph32%29.89 "Hg15 mi
5:00 PM77 °FBroken clouds.5 mph32%29.90 "Hg15 mi
4:00 PM75 °FBroken clouds.3 mph34%29.90 "Hg15 mi
3:00 PM77 °FBroken clouds.9 mph34%29.91 "Hg15 mi
2:00 PM75 °FPartly sunny.7 mph34%29.91 "Hg15 mi
1:00 PM72 °FPartly sunny.7 mph44%29.92 "Hg15 mi
12:00 PM72 °FPartly sunny.3 mph47%29.92 "Hg15 mi
11:00 AM72 °FPartly sunny.10 mph47%29.92 "Hg15 mi
Weather by CustomWeather, © 2015

See weather overviewHow to use our weather pages